Вернуться в каталог

FENGYUN 1C DEB

АктивенSSO
NORAD 30320·DEBRIS·🇨🇳 China

Запущен May 10, 1999 с Taiyuan Satellite Launch Center

Loading…

Ближайшие Пролёты (ближайшие 24 часа)

TLE

СвежийSource: Space-Track

Эпоха: Sep 14, 2026, 15:53 UTC

1 30320U 99025AAH 26257.66244698 -.00000057  00000-0 -79340-5 0  9992
2 30320  99.1540 321.9323 0084937 257.9217 256.6546 13.98697757  2531

Отслеживайте FENGYUN 1C DEB в реальном времени с AllMySat

Download on the App Store